SERIAL,TIME,MODEL,SN(OPTODE),OXYGEN,SATURATION,TEMPERATURE,CALPHASE,TCPHASE,C1RPH,C2RPH,C1AMP,C2AMP,RAWTEMP,CHECK
12,1336333934,4330,862,216.1596984863281200,69.7122802734375000,15.6770401000976560,32.7035903930664060,32.7591209411621100,37.2649803161621100,4.5058588981628420,701.7758789062500000,751.3195800781250000,232.2346954345703000,26942
12,1336337530,4330,862,212.4535980224609400,67.9508972167968800,15.2902402877807620,33.0960197448730500,33.1463203430175800,37.6237983703613300,4.4774780273437500,712.3297119140625000,755.0980224609375000,245.0726928710937500,1429
12,1336341130,4330,862,209.7989044189453000,66.9281768798828100,15.1699695587158200,33.3048095703125000,33.3523292541503900,37.8217811584472660,4.4694519042968750,718.0811157226562000,756.3218994140625000,249.0643005371093800,48934
12,1336344730,4330,862,207.9403076171875000,65.6337966918945300,14.6790599822998050,33.6516304016113300,33.6945304870605500,38.1615295410156250,4.4669947624206540,727.6314697265625000,761.1264038085938000,265.3536987304687500,48740
12,1336348330,4330,862,207.9830017089843800,65.3740234375000000,14.4875497817993160,33.7431106567382800,33.7848014831543000,38.2488403320312500,4.4640431404113770,730.2562255859375000,763.1101074218750000,271.7065124511719000,44292
12,1336351930,4330,862,207.3964996337890600,65.1671905517578100,14.4717302322387700,33.7854003906250000,33.8265190124511700,38.2887306213378900,4.4622039794921875,731.4304199218750000,763.2443237304688000,272.2312011718750000,55774
12,1336355530,4330,862,207.5366058349609400,64.6185836791992200,14.0548801422119140,33.9832496643066400,34.0217399597168000,38.4815711975097660,4.4598312377929690,736.9367065429688000,767.3446044921875000,286.0538024902344000,60088
12,1336359130,4330,862,206.8099975585937500,64.2985305786132800,13.9885501861572270,34.0590782165527340,34.0965614318847660,38.5535087585449200,4.4569549560546875,739.0255737304688000,767.9462890625000000,288.2526855468750000,41227
12,1336362730,4330,862,205.5092010498047000,63.8905601501464840,13.9860095977783200,34.1369705200195300,34.1734085083007800,38.6270408630371100,4.4536361694335940,740.8372802734375000,768.0134887695312000,288.3367919921875000,60618
12,1336366330,4330,862,202.0547943115234400,62.2833518981933600,13.5998401641845700,34.5364913940429700,34.5676002502441400,39.0197792053222660,4.4521708488464355,751.8715209960938000,771.8543701171875000,301.1330871582031000,10729
12,1336369930,4330,862,201.6074981689453000,62.1571388244628900,13.6083498001098630,34.5597496032714840,34.5905609130859400,39.0418090820312500,4.4512481689453125,752.4125976562500000,771.7028198242188000,300.8514099121094000,25928
12,1336373530,4330,862,201.8424987792968800,62.2105407714843750,13.5944795608520500,34.5521888732910160,34.5830993652343750,39.0337104797363300,4.4506068229675290,752.3195190429688000,771.8773193359375000,301.3106079101562500,18230
12,1336377130,4330,862,194.8963012695312500,59.3522491455078100,13.0546302795410160,35.2559700012207000,35.2775001525878900,39.7231597900390600,4.4456558227539060,771.4841918945312000,777.3944091796875000,319.1828918457031000,21548
12,1336380730,4330,862,192.2126007080078000,58.3447990417480500,12.9092702865600590,35.5012702941894500,35.5195312500000000,39.9645195007324200,4.4449920654296875,778.1159057617188000,778.8771972656250000,323.9916076660156000,52316
12,1336384330,4330,862,191.1154937744140600,57.9072303771972660,12.8288097381591800,35.6130981445312500,35.6298789978027340,40.0733184814453100,4.4434428215026855,781.0513916015625000,779.6716918945312000,326.6523132324219000,10787
12,1336387930,4330,862,184.7738037109375000,55.2878608703613300,12.2726898193359380,36.3192901611328100,36.3266487121582000,40.7688598632812500,4.4422068595886230,800.1721801757812000,785.4774780273438000,345.0281066894531000,26342
12,1336391530,4330,862,183.6313934326172000,54.8757209777832000,12.2161903381347660,36.4260787963867200,36.4320182800293000,40.8734092712402340,4.4413909912109375,802.9492187500000000,786.0305175781250000,346.8931884765625000,61864
12,1336395130,4330,862,183.2371063232422000,54.7901115417480500,12.2421102523803710,36.4386711120605500,36.4444503784179700,40.8839302062988300,4.4394760131835940,803.2562255859375000,785.7557983398438000,346.0374145507812500,13483
12,1336396173,4330,862,181.9290924072265600,54.2084617614746100,12.0875902175903320,36.6084899902343750,36.6119995117187500,41.0490989685058600,4.4371027946472170,807.6699218750000000,787.1295776367188000,351.1370849609375000,59412
12,1336396519,4330,862,186.0838012695312500,56.1236495971679700,12.6240596771240230,36.0488891601562500,36.0598487854003900,40.4996299743652340,4.4397811889648440,792.6668701171875000,783.2197875976562000,333.4212951660156000,7192
12,1336396730,4330,862,191.0507049560547000,58.1062011718750000,12.9970197677612300,35.5311317443847660,35.5489997863769500,39.9916191101074200,4.4426269531250000,778.7280273437500000,779.0336303710938000,321.0889892578125000,63024
12,1336396953,4330,862,196.5811004638672000,60.2261314392089840,13.3239898681640620,35.0129089355468750,35.0376815795898440,39.4837989807128900,4.4461140632629395,764.5244750976562000,775.2114257812500000,310.2680969238281000,58880
12,1336397166,4330,862,199.9521026611328000,61.6666297912597660,13.6228504180908200,34.6528396606445300,34.6824111938476560,39.1337089538574200,4.4513020515441895,754.7352294921875000,772.2752075195312000,300.3710021972656000,13699
12,1336397389,4330,862,204.7033996582031200,63.5770416259765600,13.9410295486450200,34.2068901062011700,34.2423896789550800,38.6960105895996100,4.4536209106445310,742.7260742187500000,769.3627929687500000,289.8277893066406000,30910
12,1336397446,4330,862,205.5962982177734400,64.0650863647461000,14.0908403396606450,34.0792808532714840,34.1164894104003900,38.5710601806640600,4.4545750617980960,739.1884765625000000,769.1926269531250000,284.8619079589844000,56992
12,1336397561,4330,862,206.3766021728515600,64.5774002075195300,14.2813301086425780,33.9387817382812500,33.9778594970703100,38.4358215332031250,4.4579620361328125,735.1665039062500000,765.7064208984375000,278.5458068847656000,25556
12,1336397688,4330,862,206.6132049560547000,64.9563369750976600,14.4966402053833000,33.8188285827636700,33.8595008850097660,38.3197898864746100,4.4602890014648440,731.8303833007812000,763.7354125976562000,271.4049987792969000,6992
12,1336397817,4330,862,206.8903045654297000,65.3398971557617200,14.7054901123046880,33.6998596191406250,33.7421302795410160,38.2050209045410160,4.4628911018371580,728.4468994140625000,761.7039794921875000,264.4768981933594000,28484
12,1336397932,4330,862,207.4084014892578000,65.6493911743164000,14.8079099655151370,33.6193313598632800,33.6626701354980500,38.1288604736328100,4.4661941528320310,726.3286743164062000,760.0401000976562000,261.0787963867187500,12332
12,1336398061,4330,862,208.6694030761718800,66.2055892944336000,14.9174804687500000,33.4926490783691400,33.5376701354980500,38.0040283203125000,4.4663619995117190,722.6854248046875000,758.7557983398438000,257.4432067871094000,41881
12,1336398200,4330,862,208.4167022705078000,66.4964294433593800,15.1764001846313480,33.3809814453125000,33.4274902343750000,37.8966407775878900,4.4691472053527830,719.8259277343750000,756.8679199218750000,248.8511047363281200,39949
12,1336398339,4330,862,210.8014068603515600,67.5440902709961000,15.3740596771240230,33.1491203308105500,33.1987190246582000,37.6688804626464840,4.4701690673828125,713.4445190429688000,754.7664184570312000,242.2908935546875000,5532
12,1336398485,4330,862,212.7855987548828000,68.5341110229492200,15.6156997680664060,32.9207992553710940,32.9734382629394500,37.4482383728027340,4.4748001098632810,707.0269165039062000,752.7521972656250000,234.2707061767578000,30576
12,1336398600,4330,862,216.9232025146484400,70.2037734985351600,15.8409500122070310,32.5831909179687500,32.6403312683105500,37.1190910339355500,4.4787597656250000,697.8372802734375000,750.4370117187500000,226.7942047119140600,47105
12,1336398729,4330,862,218.6795959472656200,71.0224761962890600,16.0067291259765620,32.4089889526367200,32.4684410095214840,36.9497108459472660,4.4812698364257810,693.0504150390625000,748.6538085937500000,221.2920989990234400,39160
12,1336398844,4330,862,220.8683013916015600,72.1040267944336000,16.2496204376220700,32.1765594482421900,32.2391204833984400,36.7240791320800800,4.4849548339843750,686.8392944335938000,746.4315185546875000,213.2308044433593800,29200
12,1336398959,4330,862,222.1354064941406200,72.6744766235351600,16.3516902923584000,32.0614395141601560,32.1255302429199200,36.6136894226074200,4.4881520271301270,683.5773925781250000,744.9893188476562000,209.8432006835937500,50016
12,1336399076,4330,862,222.8065032958984400,73.0996398925781200,16.4850406646728500,31.9632396697998050,32.0286407470703100,36.5182800292968750,4.4896388053894040,680.8817749023438000,743.6968994140625000,205.4183044433593800,61421
12,1336399179,4330,862,222.9756011962890600,73.3749008178711000,16.6274108886718750,31.8880500793457030,31.9544506072998050,36.4448013305664060,4.4903488159179690,678.8350219726562000,742.4583129882812000,200.6945037841797000,59374
12,1336399282,4330,862,223.2005004882812500,73.5973663330078100,16.7234306335449220,31.8316001892089840,31.8987503051757800,36.3933982849121100,4.4946517944335940,677.3908081054688000,741.3892211914062000,197.5086059570312500,47876
12,1336399399,4330,862,224.7658996582031200,74.3760604858398400,16.8919391632080080,31.6716499328613280,31.7409305572509770,36.2376899719238300,4.4967651367187500,672.9475708007812000,740.1671142578125000,191.9187011718750000,42884
12,1336399526,4330,862,226.8188018798828000,75.2608566284179700,17.0225391387939450,31.5047206878662100,31.5762290954589840,36.0725593566894500,4.4963297843933105,668.1353759765625000,738.7368164062500000,187.5870056152343800,38540
12,1336399667,4330,862,228.6042022705078000,76.0757827758789000,17.1628093719482420,31.3492107391357420,31.4227905273437500,35.9213104248046900,4.4985198974609375,664.0253906250000000,737.4503784179688000,182.9353027343750000,26374
12,1336399806,4330,862,231.7993011474609400,77.3156433105468800,17.2725105285644530,31.1377201080322270,31.2141208648681640,35.7150802612304700,4.5009608268737790,658.3837280273438000,736.3536987304688000,179.2978973388672000,51873
12,1336399978,4330,862,234.3444061279297000,78.3414764404296900,17.3811893463134770,30.9621200561523440,31.0408592224121100,35.5434989929199200,4.5026469230651855,653.6472778320312000,735.2598266601562000,175.6949005126953000,25166
12,1336400099,4330,862,234.7707061767578000,78.6244735717773400,17.4673004150390620,30.9020309448242200,30.9815692901611330,35.4861488342285160,4.5045781135559080,651.9495239257812000,734.4818115234375000,172.8406066894531200,35677
12,1336400214,4330,862,234.3489990234375000,78.6207733154296900,17.5517005920410160,30.8842792510986330,30.9640502929687500,35.4696807861328100,4.5056300163269040,651.5911254882812000,733.6829833984375000,170.0433044433593800,35195
12,1336400343,4330,862,232.6141052246093800,78.2355880737304700,17.6733493804931640,30.9149303436279300,30.9942893981933600,35.5008506774902340,4.5065608024597170,652.4547119140625000,732.7540283203125000,166.0122070312500000,33676
12,1336400470,4330,862,232.8025970458984400,78.4617309570312500,17.7738094329834000,30.8599891662597660,30.9400901794433600,35.4476203918457000,4.5075378417968750,651.0922241210938000,731.8004150390625000,162.6838989257812500,48375
12,1336400599,4330,862,231.9674072265625000,78.3363723754882800,17.8704700469970700,30.8580093383789060,30.9381294250488280,35.4450111389160160,4.5068740844726560,650.8696289062500000,730.8043212890625000,159.4821014404297000,56508
12,1336400714,4330,862,231.7695007324218800,78.4681701660156200,17.9935207366943360,30.8123397827148440,30.8930702209472660,35.4013404846191400,4.5082778930664060,649.8668212890625000,730.0092773437500000,155.4069061279297000,41377
12,1336400841,4330,862,231.8296966552734400,78.6426391601562500,18.0888996124267580,30.7663898468017580,30.8477306365966800,35.3600616455078100,4.5123291015625000,648.7023925781250000,729.0081176757812000,152.2490997314453000,47055
12,1336400916,4330,862,230.7671051025390600,78.5096130371093800,18.2302494049072270,30.7557697296142580,30.8372497558593750,35.3495407104492200,4.5122909545898440,648.5305786132812000,728.3408813476562000,147.5700988769531200,15638
12,1336400971,4330,862,228.3610992431640600,78.3533630371093800,18.6457195281982420,30.6899204254150400,30.7722797393798830,35.2881889343261700,4.5159149169921875,646.5610961914062000,727.3593750000000000,133.8265991210937500,29906
12,1336401026,4330,862,230.8751983642578000,79.5637435913086000,18.8612308502197270,30.4687805175781250,30.5540904998779300,35.0719909667968750,4.5178990364074710,640.1978149414062000,724.7006225585938000,126.7035980224609400,22585
12,1336401081,4330,862,235.2984924316406200,81.4022216796875000,19.0520801544189450,30.1680297851562500,30.2573394775390620,34.7810516357421900,4.5237121582031250,632.0352783203125000,722.9492187500000000,120.3990020751953100,21974
12,1336401148,4330,862,245.6772003173828000,85.2735366821289000,19.2153091430664060,29.6080493927001950,29.7048301696777340,34.2305183410644500,4.5256958007812500,616.3483886718750000,720.6740722656250000,115.0094985961914000,8024
12,1336401226,4330,862,252.7756958007812500,87.8720932006836000,19.2913799285888670,29.2555408477783200,29.3570098876953120,33.8857612609863300,4.5287480354309080,606.8001708984375000,718.3538208007812000,112.4989013671875000,55839
12,1336401317,4330,862,258.1093139648437500,89.7995071411132800,19.3319492340087900,29.0050601959228500,29.1098594665527340,33.6415214538574200,4.5316538810729980,600.0366210937500000,717.5676269531250000,111.1604003906250000,7819
12,1336401420,4330,862,259.5780944824219000,90.3466491699218800,19.3517799377441400,28.9332103729248050,29.0389804840087900,33.5694999694824200,4.5305252075195310,597.9381713867188000,717.1566162109375000,110.5061035156250000,42068
12,1336401513,4330,862,261.9302978515625000,91.1925964355468800,19.3666496276855470,28.8266696929931640,28.9338493347167970,33.4650306701660160,4.5311741828918460,595.2595214843750000,716.9683227539062000,110.0155029296875000,64811
12,1336401604,4330,862,263.8081970214844000,91.8450469970703100,19.3658905029296880,28.7477893829345700,28.8560295104980470,33.3883285522460940,4.5323028564453125,593.3001098632812000,716.9384765625000000,110.0403976440429700,64442
12,1336401695,4330,862,264.0664978027344000,91.9285964965820300,19.3624496459960940,28.7383403778076170,28.8467006683349600,33.3775787353515600,4.5308761596679690,592.9282836914062000,716.9899291992188000,110.1540985107421900,29621
12,1336401774,4330,862,264.0643920898437500,91.9337692260742200,19.3656501770019530,28.7370491027832030,28.8454303741455080,33.3767700195312500,4.5313420295715330,593.1171264648438000,716.9431152343750000,110.0483016967773400,20412
12,1336401867,4330,862,264.1629943847656000,91.9722671508789000,19.3679103851318360,28.7318096160888670,28.8402595520019530,33.3713798522949200,4.5311279296875000,592.9705810546875000,717.0186767578125000,109.9737014770507800,1995
12,1336401970,4330,862,264.5456848144531000,92.1099166870117200,19.3702602386474600,28.7148399353027340,28.8235206604003900,33.3535804748535160,4.5300669670104980,592.6801757812500000,717.1237182617188000,109.8962020874023400,62510
12,1336402085,4330,862,264.7177124023437500,92.1730270385742200,19.3720092773437500,28.7069702148437500,28.8157501220703120,33.3452796936035160,4.5295262336730960,592.4948120117188000,717.1287231445312000,109.8386001586914000,53444
12,1336402196,4330,862,264.6831054687500000,92.1648330688476600,19.3740806579589840,28.7075691223144530,28.8163509368896500,33.3456993103027340,4.5293498039245605,592.6644287109375000,717.2299194335938000,109.7703018188476600,12052
12,1336402287,4330,862,264.4513854980469000,92.0867462158203100,19.3754806518554700,28.7165794372558600,28.8252296447753900,33.3534698486328100,4.5282440185546875,592.8131713867188000,717.2498779296875000,109.7238998413086000,941
12,1336402378,4330,862,263.8204956054687500,91.8756332397461000,19.3801307678222660,28.7410793304443360,28.8493995666503900,33.3758087158203100,4.5264048576354980,593.4392089843750000,717.2360229492188000,109.5705032348632800,24444
12,1336402471,4330,862,263.6571960449219000,91.8276672363281200,19.3849601745605470,28.7458095550537100,28.8540706634521500,33.3827590942382800,4.5286870002746580,593.7758789062500000,717.2841186523438000,109.4113998413086000,5423
12,1336402562,4330,862,264.1593933105469000,92.0075531005859400,19.3876495361328120,28.7235603332519530,28.8321208953857420,33.3608589172363300,4.5287399291992190,593.2526245117188000,717.2631225585938000,109.3227005004882800,36379
12,1336402641,4330,862,264.8457946777344000,92.2539672851562500,19.3915996551513670,28.6933193206787100,28.8022804260253900,33.3299217224121100,4.5276408195495605,592.3690185546875000,717.2269897460938000,109.1921997070312500,19547
12,1336402732,4330,862,266.7437133789062500,92.9271392822265600,19.3980503082275400,28.6114501953125000,28.7215003967285160,33.2496414184570300,4.5281372070312500,590.2769775390625000,717.3656005859375000,108.9794998168945300,58201
12,1336402813,4330,862,266.0715942382812500,92.6990737915039000,19.4013099670410160,28.6380405426025400,28.7477302551269530,33.2743797302246100,4.5266418457031250,591.1856079101562000,717.3157958984375000,108.8718032836914000,50341
12,1336402892,4330,862,265.4345092773437500,92.4811401367187500,19.4034900665283200,28.6635398864746100,28.7728996276855470,33.2989082336425800,4.5260162353515625,591.9273071289062000,717.3699951171875000,108.8002014160156200,20604
12,1336402947,4330,862,265.4094848632812500,92.4757766723632800,19.4052600860595700,28.6638202667236330,28.7731704711914060,33.2999305725097660,4.5267558097839355,591.9639282226562000,718.3958129882812000,108.7416000366211000,38142
12,1336403002,4330,862,265.5690002441406000,92.5323562622070300,19.4058303833007800,28.6569004058837900,28.7663497924804700,33.2922592163085940,4.5259089469909670,591.8394775390625000,718.4816284179688000,108.7229003906250000,30321
12,1336403057,4330,862,265.7666931152344000,92.6038131713867200,19.4071998596191400,28.6481399536132800,28.7577095031738280,33.2844009399414060,4.5266947746276855,591.5996093750000000,718.4838256835938000,108.6778030395507800,14523
12,1336403114,4330,862,266.1976928710937500,92.7667770385742200,19.4140701293945300,28.6272296905517580,28.7370700836181640,33.2634010314941400,4.5263290405273440,591.2135009765625000,718.4614257812500000,108.4511032104492200,14588
12,1336403169,4330,862,266.4934082031250000,92.8804702758789000,19.4197406768798830,28.6125507354736330,28.7225894927978500,33.2476310729980500,4.5250468254089355,590.7822265625000000,718.4152221679688000,108.2639999389648400,25323
12,1336403224,4330,862,267.3153991699219000,93.1765594482421900,19.4248695373535160,28.5764293670654300,28.6869506835937500,33.2138710021972660,4.5269241333007810,589.8389892578125000,718.4616088867188000,108.0947036743164000,64102
12,1336403279,4330,862,267.9981994628906000,93.4188385009765600,19.4271507263183600,28.5471897125244140,28.6581001281738280,33.1822090148925800,4.5241169929504395,589.0548095703125000,718.4365234375000000,108.0195999145507800,1365
12,1336403334,4330,862,268.8106079101562500,93.7086410522461000,19.4306793212890620,28.5122509002685550,28.6236305236816400,33.1503486633300800,4.5267257690429690,588.1934204101562000,718.3880004882812000,107.9032974243164000,43719
12,1336403389,4330,862,269.6264038085937500,94.0056533813476600,19.4373397827148440,28.4759693145751950,28.5878295898437500,33.1138000488281250,4.5259699821472170,587.2050781250000000,718.5236206054688000,107.6835021972656200,8735
12,1336403446,4330,862,270.8129882812500000,94.4523391723632800,19.4547195434570300,28.4200401306152340,28.5326499938964840,33.0567207336425800,4.5240778923034670,585.6502075195312000,718.4926757812500000,107.1100997924804700,18608
12,1336403501,4330,862,271.9659118652344000,94.8833389282226600,19.4698696136474600,28.3668994903564450,28.4802093505859380,33.0057983398437500,4.5255889892578125,584.2667846679688000,718.3773803710938000,106.6106033325195300,15925
12,1336403556,4330,862,273.3363952636719000,95.3908081054687500,19.4851703643798830,28.3050308227539060,28.4191703796386720,32.9438591003418000,4.5246958732604980,582.5684814453125000,718.2249755859375000,106.1059036254882800,2409
12,1336403611,4330,862,274.4522094726562500,95.7905273437500000,19.4905300140380860,28.2580394744873050,28.3728008270263670,32.8971710205078100,4.5243759155273440,581.2838134765625000,718.1818847656250000,105.9291992187500000,26195
12,1336403666,4330,862,275.4926147460937500,96.1792297363281200,19.5037994384765620,28.2107906341552730,28.3261795043945300,32.8512916564941400,4.5251078605651855,580.0490722656250000,718.1287841796875000,105.4916992187500000,7905
12,1336403721,4330,862,276.4771118164062500,96.5460968017578100,19.5157299041748050,28.1666107177734380,28.2825908660888670,32.8103294372558600,4.5277400016784670,579.0042724609375000,718.0795898437500000,105.0981979370117200,22858
12,1336403778,4330,862,277.0925903320312500,96.7807998657226600,19.5258998870849600,28.1378707885742200,28.2542304992675780,32.7802085876464840,4.5259861946105960,578.1317749023438000,718.0642700195312000,104.7628021240234400,19357
12,1336403833,4330,862,277.3409118652344000,96.8984832763671900,19.5418090820312500,28.1213893890380860,28.2379703521728500,32.7621002197265600,4.5241317749023440,577.5617065429688000,717.9580078125000000,104.2380981445312500,30425
12,1336403888,4330,862,277.9908142089844000,97.2248306274414000,19.5927295684814450,28.0743293762207030,28.1915397644042970,32.7183685302734400,4.5268330574035645,576.4564819335938000,717.8029174804688000,102.5595016479492200,3655
12,1336403943,4330,862,278.1679992675781000,97.5441131591796900,19.7245807647705080,28.0120391845703120,28.1300792694091800,32.6578407287597660,4.5277628898620605,574.7407226562500000,717.2764282226562000,98.2137069702148400,64587
12,1336403998,4330,862,278.4408874511719000,97.8532867431640600,19.8338108062744140,27.9555797576904300,28.0743694305419920,32.6006507873535160,4.5262827873229980,573.0692138671875000,716.2241210937500000,94.6151733398437500,44219
12,1336404053,4330,862,277.5548095703125000,97.8780364990234400,20.0062408447265620,27.9183692932128900,28.0376605987548830,32.5654792785644500,4.5278167724609375,571.7963867187500000,715.2241210937500000,88.9374465942382800,24964
12,1336404110,4330,862,276.2854003906250000,97.7991561889648400,20.1961498260498050,27.8894691467285160,28.0091400146484380,32.5406303405761700,4.5314941406250000,571.0543212890625000,713.6605224609375000,82.6884536743164000,25107
12,1336404165,4330,862,275.2637023925781000,97.5482864379882800,20.2533607482910160,27.9062404632568360,28.0256900787353500,32.5613403320312500,4.5356521606445310,571.2672119140625000,712.3861083984375000,80.8069610595703100,20674
12,1336404244,4330,862,274.7095031738281000,97.4184570312500000,20.2878093719482420,27.9139003753662100,28.0332508087158200,32.5718994140625000,4.5386509895324710,571.5805053710938000,710.4854125976562000,79.6740036010742200,51686
12,1336404347,4330,862,274.2583923339844000,97.2923736572265600,20.3053493499755860,27.9245090484619140,28.0437202453613280,32.5828285217285160,4.5391159057617190,572.0258789062500000,710.2448730468750000,79.0973815917968800,25546
12,1336404436,4330,862,273.7424011230469000,97.1743164062500000,20.3390998840332030,27.9310894012451170,28.0501995086669920,32.5884094238281250,4.5382080078125000,572.1517944335938000,709.9360961914062000,77.9877319335937500,46687
12,1336404491,4330,862,273.2867126464844000,97.0732879638671900,20.3707103729248050,27.9361400604248050,28.0551891326904300,32.5932197570800800,4.5380249023437500,572.2578125000000000,710.7312011718750000,76.9487762451171900,3272